Precipitable_Water
2.08 2.06 2.07 1.72 1.16 1.15 1.08 1.06 1.24 1.14 1.19 1.40 1.39 1.31 1.21 1.21 0.92 0.86 1.66 1.67 1.66 1.72 1.89 1.90 1.91 1.90 1.81 1.75 1.82 1.85 1.83 1.84 1.80 1.77 1.71 1.69 1.65 1.64 1.64 1.66 1.68 1.68 1.67 1.74 1.76 1.78 1.78 1.83 1.87
2.09 2.02 1.79 1.41 0.98 0.89 1.04 1.23 1.10 1.15 1.29 1.50 1.45 1.45 1.35 1.17 1.44 1.52 1.46 1.70 1.71 1.73 1.88 1.87 1.85 1.82 1.76 1.69 1.74 1.83 1.84 1.82 1.79 1.75 1.72 1.70 1.66 1.65 1.62 1.64 1.65 1.66 1.69 1.74 1.77 1.80 1.85 1.85 1.87
1.95 2.03 1.40 1.10 0.97 0.80 0.89 1.07 1.18 1.24 1.47 1.42 1.35 1.49 1.38 1.19 1.34 1.51 1.63 1.74 1.76 1.76 1.86 1.86 1.80 1.78 1.72 1.68 1.68 1.75 1.79 1.81 1.82 1.76 1.71 1.64 1.63 1.65 1.64 1.69 1.71 1.68 1.69 1.74 1.79 1.83 1.91 1.91 1.92
1.58 1.62 1.41 0.90 0.80 0.95 1.02 1.05 1.27 1.22 1.29 1.40 1.39 1.21 1.48 1.56 1.49 1.65 1.74 1.76 1.73 1.78 1.89 1.86 1.79 1.75 1.72 1.70 1.69 1.76 1.80 1.82 1.82 1.77 1.71 1.63 1.67 1.68 1.67 1.66 1.70 1.70 1.72 1.79 1.90 1.95 1.96 1.92 1.93
1.48 1.34 0.91 0.82 0.79 0.99 1.12 1.17 1.26 1.18 1.18 1.30 1.30 1.19 1.31 1.60 1.67 1.74 1.70 1.73 1.68 1.77 1.88 1.89 1.78 1.74 1.74 1.75 1.75 1.74 1.78 1.84 1.82 1.80 1.79 1.74 1.81 1.84 1.78 1.71 1.77 1.71 1.71 1.76 1.82 1.90 1.98 1.98 1.97
1.06 1.19 0.73 0.60 0.71 0.93 1.11 1.14 1.06 1.02 1.16 1.22 1.15 1.20 1.34 1.78 1.65 1.70 1.65 1.67 1.75 1.71 1.88 1.97 1.83 1.76 1.79 1.76 1.78 1.77 1.80 1.83 1.83 1.82 1.83 1.92 2.01 1.97 1.93 1.89 1.85 1.89 1.91 1.84 1.82 1.88 1.98 1.97 2.04
0.86 0.83 0.74 0.66 0.65 0.72 0.90 1.18 1.08 1.02 1.03 1.11 1.31 1.07 1.39 1.66 1.79 1.68 1.62 1.70 1.73 1.75 1.78 1.95 1.98 1.84 1.82 1.80 1.77 1.82 1.83 1.84 1.88 1.99 2.12 2.12 2.05 2.02 1.98 2.06 1.99 1.96 1.93 1.95 1.87 1.87 1.89 1.97 2.01
0.85 0.83 0.65 0.60 0.49 0.53 1.01 1.18 1.25 1.09 0.99 1.34 1.41 1.10 1.17 1.57 1.76 1.72 1.66 1.67 1.72 1.75 1.78 1.88 1.97 1.90 1.86 1.89 1.87 1.91 1.93 1.93 2.02 2.09 2.12 2.10 2.04 2.02 2.06 2.00 1.96 1.98 2.01 1.99 1.84 1.81 1.83 1.85 1.86
0.85 0.53 0.50 0.43 0.45 0.52 0.96 0.85 1.13 1.25 1.10 1.22 1.35 1.35 1.46 1.70 1.75 1.60 1.52 1.58 1.66 1.74 1.79 1.84 1.92 2.05 1.96 1.94 1.97 2.00 2.00 1.98 2.03 2.18 2.12 2.09 2.02 2.05 2.07 1.99 1.99 2.02 2.04 1.95 1.89 1.89 1.86 1.82 1.82
0.60 0.52 0.51 0.53 0.56 0.60 0.83 0.84 0.96 1.01 1.01 1.07 1.12 1.35 1.53 1.61 1.65 1.47 1.36 1.37 1.50 1.59 1.72 1.80 1.84 1.95 2.02 2.02 2.06 2.06 2.01 1.97 2.03 2.10 2.18 2.09 2.01 1.96 2.06 2.12 2.14 2.09 2.11 2.03 1.87 1.86 1.89 1.89 1.78
0.59 0.46 0.54 0.59 0.63 0.62 0.70 0.75 0.93 0.89 0.87 1.02 1.02 1.14 1.42 1.51 1.54 1.46 1.38 1.39 1.48 1.65 1.72 1.78 1.78 1.87 1.94 1.98 2.02 2.05 2.03 2.00 1.93 2.01 2.09 2.02 1.96 2.03 2.04 2.16 2.21 2.16 2.21 2.02 1.86 1.78 1.87 1.87 1.71
0.50 0.60 0.57 0.59 0.65 0.64 0.65 0.82 0.74 0.83 0.93 1.16 1.23 1.31 1.38 1.36 1.41 1.40 1.43 1.47 1.52 1.61 1.70 1.81 1.83 1.82 1.91 1.94 1.94 1.92 1.93 1.95 1.86 2.00 2.00 1.89 1.89 2.03 2.12 2.11 2.12 2.13 2.14 2.06 1.90 1.77 1.76 1.81 1.74
0.52 0.49 0.55 0.60 0.60 0.64 0.70 0.73 0.77 0.78 0.95 1.12 1.20 1.27 1.33 1.38 1.40 1.53 1.66 1.72 1.73 1.61 1.69 1.74 1.78 1.77 1.82 1.82 1.84 1.87 1.95 2.00 1.92 1.87 1.85 1.82 1.91 2.01 2.21 2.14 2.09 2.09 2.09 2.09 2.03 1.84 1.71 1.68 1.65
0.50 0.51 0.50 0.54 0.56 0.60 0.61 0.71 0.82 0.79 1.00 1.03 1.07 1.14 1.29 1.47 1.46 1.51 1.55 1.64 1.74 1.76 1.73 1.73 1.74 1.77 1.79 1.77 1.88 1.94 2.02 2.01 1.96 1.80 1.77 1.85 1.87 2.01 2.11 2.10 2.12 2.10 2.16 2.16 2.13 1.97 1.78 1.68 1.66
0.54 0.49 0.53 0.53 0.54 0.53 0.62 0.57 0.64 0.80 0.94 1.00 1.07 1.18 1.31 1.41 1.54 1.52 1.59 1.54 1.65 1.69 1.84 1.82 1.73 1.75 1.74 1.80 1.98 2.01 1.95 1.98 1.91 2.00 1.90 1.88 1.86 1.84 2.08 2.12 2.10 2.16 2.18 2.15 2.15 2.11 2.04 1.79 1.70
0.47 0.49 0.40 0.49 0.53 0.54 0.56 0.41 0.60 0.81 0.89 0.97 1.06 1.17 1.30 1.40 1.51 1.66 1.74 1.79 1.81 1.78 1.76 1.83 1.77 1.74 1.78 1.84 1.98 2.03 2.01 1.99 1.99 2.05 2.05 1.91 1.82 1.80 1.97 2.07 2.12 2.25 2.14 2.11 2.05 2.05 1.99 1.93 1.74
0.41 0.34 0.36 0.37 0.48 0.54 0.53 0.45 0.66 0.83 0.92 0.99 1.06 1.16 1.25 1.36 1.51 1.65 1.74 1.80 1.90 1.84 1.79 1.80 1.79 1.73 1.76 1.83 1.95 2.01 1.99 1.98 1.98 2.06 2.08 2.03 1.88 1.76 1.83 2.00 2.02 2.07 2.06 2.04 2.00 1.97 1.98 1.89 1.89
0.31 0.31 0.33 0.32 0.39 0.49 0.48 0.49 0.69 0.80 0.91 0.92 1.03 1.15 1.21 1.27 1.38 1.63 1.70 1.75 1.85 1.92 1.86 1.84 1.82 1.85 1.78 1.81 1.89 1.97 2.01 1.96 1.96 1.95 2.05 2.06 1.96 1.85 1.73 1.80 1.97 1.92 2.00 1.91 1.90 1.92 2.03 1.97 1.89
0.30 0.30 0.31 0.35 0.40 0.41 0.43 0.48 0.60 0.76 0.83 0.87 0.90 0.93 1.03 1.13 1.34 1.59 1.66 1.69 1.75 1.83 1.84 1.85 1.76 1.84 1.82 1.73 1.71 1.81 1.80 1.82 1.85 1.90 1.95 2.04 2.05 1.92 1.81 1.80 1.83 1.85 1.91 1.96 1.97 1.85 1.87 1.88 1.99
0.30 0.29 0.30 0.33 0.39 0.41 0.46 0.48 0.64 0.72 0.78 0.89 0.88 0.85 0.98 1.13 1.25 1.36 1.48 1.57 1.65 1.71 1.80 1.82 1.80 1.81 1.80 1.76 1.77 1.82 1.83 1.79 1.82 1.91 1.95 2.01 2.07 2.06 1.96 1.81 1.76 1.81 1.82 1.94 2.01 1.89 1.73 1.84 2.06
0.29 0.27 0.27 0.29 0.36 0.50 0.46 0.45 0.56 0.69 0.91 1.01 1.04 1.05 1.08 1.13 1.16 1.23 1.34 1.48 1.64 1.68 1.76 1.80 1.82 1.82 1.93 1.85 1.83 1.84 1.81 1.77 1.74 1.82 1.88 1.97 2.10 2.15 2.07 1.99 1.75 1.80 1.79 1.85 1.89 1.93 1.83 1.64 1.95
0.25 0.29 0.30 0.34 0.36 0.33 0.45 0.31 0.52 0.67 0.80 0.90 1.01 1.06 1.08 1.13 1.15 1.27 1.35 1.41 1.53 1.66 1.81 1.89 1.98 1.97 2.06 1.94 1.80 1.76 1.63 1.47 1.61 1.72 1.85 1.91 2.08 2.07 2.09 2.08 1.96 1.88 1.74 1.61 1.75 1.89 1.85 1.74 1.64
0.25 0.29 0.32 0.36 0.36 0.39 0.43 0.42 0.52 0.67 0.68 0.78 0.90 1.04 1.10 1.13 1.10 1.17 1.34 1.43 1.48 1.53 1.66 1.86 2.03 2.06 2.19 2.08 1.94 1.83 1.71 1.69 1.70 1.73 1.78 1.90 1.97 2.04 2.08 2.09 2.06 2.00 1.86 1.61 1.61 1.69 1.87 1.82 1.77
0.31 0.28 0.32 0.37 0.38 0.33 0.47 0.46 0.46 0.57 0.66 0.75 0.87 0.94 1.07 1.09 1.10 1.10 1.24 1.49 1.54 1.62 1.71 1.87 1.91 2.02 2.25 2.23 2.14 1.94 1.77 1.72 1.72 1.75 1.76 1.84 1.88 1.95 2.01 2.08 2.05 2.06 1.95 1.66 1.56 1.59 1.78 1.82 1.79
0.32 0.26 0.26 0.26 0.29 0.31 0.48 0.45 0.47 0.65 0.75 0.78 0.82 0.92 1.02 1.08 1.09 1.10 1.14 1.30 1.47 1.55 1.70 1.86 1.97 1.97 2.00 2.12 1.94 1.99 1.90 1.83 1.79 1.85 1.90 1.85 1.83 1.86 1.93 2.02 1.98 1.99 1.98 1.96 1.63 1.56 1.61 1.80 1.78
0.30 0.32 0.28 0.23 0.25 0.30 0.45 0.37 0.43 0.66 0.77 0.81 0.88 0.94 0.99 1.02 1.05 1.09 1.15 1.23 1.35 1.48 1.68 1.81 1.95 1.90 2.06 1.95 1.92 1.96 1.96 1.88 1.87 1.89 1.90 1.88 1.88 1.91 1.95 1.98 2.03 2.02 1.99 1.96 1.66 1.62 1.68 1.84 1.80
0.35 0.32 0.41 0.36 0.38 0.32 0.42 0.51 0.58 0.66 0.66 0.71 0.76 0.77 0.92 0.99 1.02 1.07 1.12 1.20 1.33 1.43 1.63 1.68 1.75 1.81 1.97 2.02 2.01 2.06 1.98 2.00 1.95 1.95 1.88 1.92 1.94 1.93 1.95 1.96 2.02 2.06 2.05 1.97 1.65 1.59 1.72 1.77 1.83
0.41 0.45 0.38 0.40 0.32 0.30 0.39 0.45 0.44 0.50 0.55 0.65 0.70 0.73 0.87 0.96 0.98 1.08 1.10 1.15 1.29 1.40 1.57 1.67 1.73 1.75 1.81 1.79 1.88 1.87 1.86 1.79 1.90 1.97 1.92 1.93 1.92 1.93 1.94 1.96 2.02 2.04 2.08 2.02 1.67 1.62 1.72 1.77 1.91
0.48 0.44 0.46 0.47 0.44 0.35 0.31 0.38 0.57 0.57 0.59 0.62 0.67 0.74 0.87 0.96 0.96 1.02 1.15 1.16 1.23 1.38 1.47 1.56 1.63 1.65 1.69 1.77 1.74 1.75 1.73 1.77 1.83 1.87 1.98 1.91 1.92 1.93 1.94 1.99 2.02 2.01 2.03 1.83 1.62 1.68 1.78 1.80 1.88
0.52 0.48 0.47 0.39 0.39 0.44 0.41 0.37 0.61 0.65 0.65 0.71 0.70 0.77 0.93 1.08 1.04 1.07 1.16 1.22 1.24 1.28 1.38 1.44 1.53 1.58 1.64 1.72 1.78 1.74 1.78 1.82 1.78 1.86 1.98 2.00 1.94 1.98 1.93 1.99 2.01 1.99 1.91 1.78 1.73 1.77 1.88 1.84 1.88
Wind_Speed
8 6 4 4 4 5 3 6 4 5 3 4 5 4 3 5 4 3 4 11 14 15 15 15 14 13 12 12 12 12 12 12 11 10 9 8 7 7 6 6 6 6 5 5 5 5 5 6 6
7 7 7 5 6 4 3 3 4 4 3 3 4 4 4 4 3 3 9 10 14 15 14 14 14 12 12 11 11 11 11 10 10 9 8 7 6 5 4 4 3 3 3 3 3 4 4 4 5
5 5 6 5 4 4 3 2 2 4 5 4 4 6 4 4 2 6 8 12 14 14 14 14 13 12 11 11 10 10 10 9 8 7 6 5 4 3 2 1 1 1 2 2 2 2 3 4 4
2 3 5 7 5 3 2 3 3 4 5 4 4 7 6 3 5 7 12 13 13 13 13 13 13 12 11 10 10 9 9 8 7 6 5 4 3 2 1 1 1 1 1 1 2 3 3 4 3
2 3 4 4 4 2 2 3 4 4 5 4 4 5 5 5 6 10 11 12 12 12 12 13 13 12 11 10 9 8 8 7 6 5 4 4 2 2 1 1 1 1 2 2 3 3 4 4 4
3 3 3 3 3 3 2 3 4 4 5 4 5 4 3 3 6 9 11 11 12 12 12 12 13 12 11 10 9 8 7 6 6 5 4 3 2 1 2 1 1 2 3 3 3 3 4 4 5
2 2 2 3 3 3 1 2 2 3 4 4 3 4 3 2 5 10 11 11 11 11 11 11 12 12 11 10 9 7 6 5 5 5 4 3 3 3 2 2 2 2 3 3 3 3 3 4 5
1 1 3 2 2 2 1 2 3 1 4 4 3 3 0 4 7 9 10 11 11 11 11 11 11 11 11 10 9 7 6 5 5 5 4 3 3 3 3 3 3 2 2 2 3 3 3 3 4
0 2 2 4 5 2 1 2 3 4 4 3 2 2 1 8 8 8 9 10 11 11 11 11 11 11 11 10 9 7 6 5 5 5 4 4 4 4 3 3 2 2 2 1 2 4 3 3 4
1 2 2 3 5 4 3 3 2 3 4 3 3 2 3 8 8 8 10 10 12 12 11 11 11 11 11 11 9 8 6 6 5 5 5 4 3 3 3 4 3 3 2 2 2 3 4 4 4
2 3 1 2 3 5 4 5 4 5 5 3 1 1 5 8 8 8 9 10 12 11 11 12 12 12 12 11 10 8 7 6 5 5 5 5 4 2 3 3 4 3 4 3 2 3 4 4 4
1 3 1 2 1 1 3 5 5 3 5 5 1 3 5 6 8 10 10 10 10 11 11 11 12 12 12 12 11 9 8 7 6 5 5 5 5 3 2 2 3 2 3 3 3 3 4 4 5
1 1 2 4 3 2 3 5 6 6 6 5 1 3 5 5 8 9 10 10 11 11 11 12 13 13 13 12 11 10 9 7 6 6 6 6 4 4 4 4 4 3 3 4 4 4 5 5 6
2 4 4 3 3 3 3 5 5 7 5 4 1 3 4 7 7 8 10 12 14 13 13 12 13 14 14 13 12 11 10 8 7 6 6 6 5 4 2 2 2 3 4 4 5 5 5 6 6
3 4 4 5 4 5 3 8 6 7 5 4 4 5 6 8 8 10 11 11 14 14 15 14 14 14 15 14 13 12 11 9 8 7 7 7 6 6 5 3 2 2 3 4 5 5 5 5 6
3 2 4 5 4 4 3 8 7 7 5 5 6 7 9 11 11 10 13 14 14 14 17 15 16 15 16 16 14 14 13 12 10 8 8 8 8 7 5 5 4 3 2 2 4 5 4 5 5
3 2 5 8 6 5 4 8 9 7 5 6 7 8 9 10 11 12 13 16 16 16 18 18 18 16 17 17 16 15 14 13 13 11 9 9 9 9 7 5 4 4 2 1 1 3 4 4 6
4 5 6 7 7 6 5 7 7 6 5 7 8 8 8 10 14 13 13 17 16 17 17 19 19 18 18 17 17 16 15 14 14 14 12 10 10 10 8 7 5 4 3 3 2 2 3 5 5
6 6 7 6 7 5 4 4 6 7 7 8 9 9 9 9 9 11 12 14 18 18 17 20 21 20 19 18 18 17 17 15 15 15 15 13 11 12 10 9 8 6 5 5 4 3 3 2 2
6 6 8 7 6 4 3 5 7 6 6 7 10 8 7 7 8 10 12 13 15 18 19 19 20 22 21 19 19 17 17 15 15 15 15 15 13 12 13 12 11 9 8 7 6 5 4 4 4
7 7 6 6 6 4 2 8 8 6 7 10 9 8 8 7 7 7 7 11 12 15 18 20 21 22 22 21 20 18 17 16 16 16 16 16 16 15 14 14 13 12 10 9 8 8 6 5 5
7 6 6 6 3 4 6 7 6 4 7 10 10 10 8 8 8 9 8 7 9 12 16 20 22 24 25 22 22 21 18 16 16 16 16 16 16 16 16 16 15 14 13 12 10 9 8 7 6
8 5 5 3 3 2 6 4 5 5 7 9 10 11 11 9 8 9 8 10 10 12 14 17 22 25 28 24 23 22 20 18 16 16 16 16 16 16 17 17 17 16 15 13 13 11 10 9 8
5 5 3 2 2 2 5 4 5 4 5 8 9 10 11 9 8 7 5 7 8 9 12 15 17 24 26 27 24 22 21 19 18 17 17 17 17 18 17 18 18 18 16 15 14 13 12 11 10
4 2 3 2 3 3 4 4 6 4 4 6 10 11 10 9 10 7 4 4 7 8 10 13 17 20 27 28 26 23 22 21 20 19 18 18 18 18 19 18 19 18 18 17 15 14 14 12 11
3 6 5 4 3 5 5 6 6 4 6 10 10 10 8 9 9 9 6 5 5 7 9 11 12 15 27 31 29 24 22 21 20 19 19 19 18 17 18 19 19 20 19 18 17 15 14 13 13
3 2 3 1 4 4 5 7 8 6 8 9 10 9 6 8 10 8 6 5 5 5 7 8 3 3 2 21 23 19 19 19 21 20 18 18 19 18 18 18 21 21 21 20 19 17 16 15 14
2 4 1 3 2 4 6 7 5 6 7 8 8 8 6 8 9 9 7 6 5 5 6 6 3 2 3 10 15 16 16 17 18 18 18 19 19 20 19 20 19 21 21 21 20 18 17 16 15
2 2 2 1 3 3 5 7 6 6 5 6 9 8 8 9 9 10 9 7 6 4 5 5 3 2 2 2 12 16 16 16 17 18 18 18 18 19 19 21 20 20 21 21 20 20 18 17 16
3 3 4 4 7 6 5 9 8 7 6 5 8 9 8 8 9 9 9 8 7 6 5 4 5 4 6 5 6 7 13 15 17 18 19 19 18 19 19 20 19 19 21 22 21 21 20 19 18
Wind_Direction
74 91 77 70 70 74 74 57 46 32 35 29 82 53 27 31 39 42 107 144 147 148 149 150 148 144 141 141 140 140 137 137 137 136 133 127 122 119 114 107 96 99 106 108 112 121 129 127 126
76 66 71 66 82 70 63 34 26 24 32 38 41 11 5 5 8 82 131 147 152 152 153 155 153 150 146 145 147 146 146 145 144 141 138 135 128 126 122 111 101 102 106 119 121 127 138 147 150
77 60 61 64 68 82 75 32 47 35 56 57 32 13 355 358 46 139 142 147 153 155 158 160 159 156 153 150 149 150 151 152 152 152 150 147 141 137 136 130 129 139 141 135 149 163 159 158 155
53 52 50 63 49 55 57 69 61 58 32 15 21 17 31 357 128 142 145 148 152 156 159 162 164 160 158 156 154 153 153 155 158 162 165 167 167 182 224 232 217 200 188 184 182 186 187 192 195
33 46 60 36 13 39 41 42 30 13 8 24 23 30 57 53 108 140 148 152 154 156 161 164 167 166 163 162 162 161 162 164 167 174 179 185 189 200 210 234 248 232 228 233 228 222 215 217 208
52 55 39 22 3 12 64 49 37 22 24 29 24 40 35 79 129 149 154 158 159 158 163 165 170 168 168 167 167 169 174 177 183 188 195 200 203 226 231 261 277 273 252 248 237 233 231 221 205
52 38 1 21 32 12 12 93 34 33 43 9 24 23 16 119 142 154 159 163 164 165 167 167 172 176 175 173 173 174 177 185 194 200 206 219 225 234 254 266 278 278 271 261 229 226 227 215 206
321 32 359 15 28 12 126 81 34 30 20 21 355 351 50 160 151 157 163 168 170 172 173 174 176 180 181 180 182 185 190 197 202 208 212 223 227 242 259 269 271 267 280 245 215 221 213 204 201
310 27 33 32 49 36 78 34 12 9 18 356 2 359 358 157 154 157 169 176 179 180 182 183 184 186 186 187 191 196 202 207 212 216 220 230 232 245 253 265 264 250 256 235 235 223 204 198 200
78 130 176 39 51 58 69 52 65 21 2 352 346 333 147 169 175 174 180 181 185 187 191 192 192 192 193 195 198 202 206 211 221 227 230 226 231 242 254 259 259 247 254 248 256 216 211 200 198
147 128 155 16 42 63 57 34 36 37 357 336 1 121 175 182 188 185 186 187 188 194 194 197 198 199 199 202 202 205 209 214 224 230 229 219 220 241 261 268 263 272 257 247 238 208 198 198 196
187 246 236 315 288 30 30 20 14 340 345 340 328 165 162 188 199 198 193 190 193 196 199 202 203 203 205 205 205 209 214 221 228 226 220 215 223 244 258 276 291 279 258 237 229 216 209 205 201
173 251 293 302 306 275 11 354 346 335 343 1 81 181 196 201 203 207 208 209 206 208 209 209 209 208 208 209 209 213 216 220 221 219 216 216 230 234 256 272 271 269 272 241 234 228 221 219 211
305 297 291 295 297 291 291 326 334 342 349 359 296 224 219 212 209 206 214 219 216 219 217 214 212 212 210 209 213 215 212 215 218 219 220 220 227 232 248 277 301 262 272 255 233 229 228 224 221
285 289 301 279 284 286 286 310 302 331 330 315 293 265 242 230 226 223 223 220 219 222 221 219 217 216 215 214 216 216 213 215 218 224 225 227 229 230 244 269 294 309 299 241 235 228 234 232 229
324 357 345 318 301 298 265 293 329 313 311 305 299 279 248 241 240 241 238 231 228 228 221 222 219 220 217 218 219 217 219 222 225 227 230 230 230 233 242 257 267 279 280 286 217 222 236 235 233
349 296 325 329 315 296 286 302 321 325 321 304 309 297 262 251 252 252 241 232 235 233 228 225 221 222 221 223 222 222 223 227 229 230 232 234 231 233 241 251 249 259 243 219 196 224 235 245 240
293 310 307 302 318 307 306 305 314 320 309 309 309 300 275 266 255 249 251 238 236 234 228 225 224 226 224 224 224 226 228 232 232 233 234 235 231 231 236 239 240 240 227 221 231 250 261 253 243
286 284 291 304 315 304 328 316 324 298 309 306 312 306 286 276 263 250 254 243 236 233 230 229 226 226 224 225 224 228 230 233 233 233 233 236 234 232 236 239 238 238 231 236 244 262 270 252 244
268 277 290 306 331 330 345 327 317 323 325 324 317 309 302 300 274 255 262 243 236 231 230 228 227 226 227 227 227 227 228 233 233 234 233 233 235 235 237 239 237 237 240 244 246 247 264 261 260
254 255 267 276 322 350 338 324 315 322 346 345 341 319 311 305 285 268 279 243 243 232 231 233 232 230 226 227 226 226 229 235 234 234 233 236 238 240 241 238 237 237 241 243 248 248 254 265 268
268 256 258 284 325 308 321 305 310 320 336 343 341 343 322 312 297 279 269 255 254 245 244 240 237 235 226 225 224 225 226 230 235 236 237 238 238 241 240 237 235 237 242 243 247 249 253 259 261
248 241 247 290 312 342 352 9 320 343 323 332 337 339 334 320 308 288 273 258 266 259 253 251 246 239 232 226 225 227 229 232 237 239 239 239 240 241 241 237 235 237 242 241 242 246 249 253 258
245 249 274 281 330 17 346 28 340 348 325 340 351 341 342 341 334 316 289 256 275 276 266 259 254 241 235 222 227 226 227 230 235 237 238 240 242 245 243 237 236 236 238 238 242 243 245 250 259
241 235 259 293 328 249 327 355 313 353 336 334 339 348 350 347 346 344 328 279 282 292 293 283 262 254 240 215 225 230 228 231 234 237 239 241 244 246 241 236 235 235 235 238 240 241 243 248 256
182 182 189 224 263 286 305 311 311 318 329 332 336 329 334 343 344 341 335 317 302 308 310 313 278 266 251 233 226 232 224 229 233 238 241 243 244 245 239 238 235 235 234 235 235 240 242 248 254
186 190 224 179 309 312 304 312 320 342 332 335 350 359 346 351 346 336 338 329 327 329 330 345 340 348 111 198 206 214 220 231 237 238 242 246 243 245 243 239 237 235 234 234 235 240 244 248 254
219 204 284 310 291 302 307 312 306 335 339 348 358 6 359 350 352 6 3 346 329 335 338 349 16 69 118 195 207 215 225 235 233 238 244 248 245 244 244 238 240 236 236 233 234 238 242 246 253
263 266 317 269 294 275 296 304 311 314 317 344 360 357 352 354 355 3 7 358 349 333 340 342 332 256 267 217 216 226 234 236 238 242 247 248 246 244 242 239 241 238 232 231 234 236 242 245 250
275 259 268 279 279 305 288 299 319 296 297 327 344 348 339 348 357 359 7 5 353 334 321 322 328 292 266 244 230 224 231 243 246 249 252 250 247 243 242 237 239 234 232 233 234 238 242 245 248